Location: Zagreb
(45.8000°N, 16.0000°E)
Time: 15:14:35
(UTC+01:00)

Tiangong - Visible Passes

Search period start: 22 January 2022 00:00
Search period end: 01 February 2022 00:00
Orbit: 383 x 386 km, 41.5° (Epoch: 21 January)

Date Brightness Start Highest point End Pass type
(mag) Time Alt. Az. Time Alt. Az. Time Alt. Az.
26 Jan 3.9 18:49:14 10° S 18:49:16 10° S 18:49:16 10° S visible
27 Jan 4.2 19:24:30 10° SW 19:24:44 11° SW 19:24:44 11° SW visible
28 Jan 3.0 18:25:17 10° SSW 18:27:29 18° SSE 18:27:55 17° SSE visible
29 Jan 3.6 17:26:35 10° S 17:27:54 12° SSE 17:29:13 10° SE visible
29 Jan 2.9 19:01:18 10° SW 19:03:14 25° SSW 19:03:14 25° SSW visible
30 Jan 2.7 18:01:48 10° SW 18:04:25 24° SSE 18:06:17 15° ESE visible
30 Jan 4.2 19:37:53 10° WSW 19:38:29 14° WSW 19:38:29 14° WSW visible
31 Jan 2.0 18:38:07 10° WSW 18:41:04 35° S 18:41:30 33° SSE visible
